Location: Freistadt
(48.5112°N, 14.5013°E)
Time: 21:54:54
(UTC+02:00)

M-CUBED/EXP-1 PRIME - Pass Details

Date: 08 April 2023
Orbit: 405 x 573 km, 101.7° (Epoch: 31 May)

Event Time Altitude Azimuth Distance (km) Brightness Sun altitude
Rises 03:28:56 0° 6° (N) 2,808 ? -26.0°
Reaches altitude 10° 03:31:46 10° 345° (NNW) 1,880 ? -25.7°
Enters shadow 03:33:29 15° 321° (NW) 1,543 ? -25.5°
